TimeCST,TemperatureF,Dew PointF,Humidity,Sea Level PressureIn,VisibilityMPH,Wind Direction,Wind SpeedMPH,Gust SpeedMPH,PrecipitationIn,Events,Conditions,WindDirDegrees,DateUTC
12:15 AM,25.3,21.7,86,29.89,7.0,South,9.2,-,N/A,,Clear,170,2013-02-24 06:15:00
12:35 AM,24.8,21.2,86,29.89,7.0,South,8.1,-,N/A,,Clear,170,2013-02-24 06:35:00
12:55 AM,24.3,20.8,87,29.90,7.0,South,5.8,-,N/A,,Clear,170,2013-02-24 06:55:00
1:15 AM,23.7,20.5,87,29.91,7.0,South,6.9,-,N/A,,Clear,170,2013-02-24 07:15:00
1:35 AM,23.2,20.3,89,29.91,7.0,South,6.9,-,N/A,,Clear,170,2013-02-24 07:35:00
1:55 AM,23.5,20.5,88,29.91,7.0,SSE,5.8,-,N/A,,Clear,150,2013-02-24 07:55:00
2:15 AM,23.0,20.1,89,29.91,7.0,SSE,6.9,-,N/A,,Clear,150,2013-02-24 08:15:00
2:35 AM,22.1,19.4,89,29.91,5.0,SSE,5.8,-,N/A,,Clear,160,2013-02-24 08:35:00
2:55 AM,22.1,19.4,89,29.92,7.0,South,5.8,-,N/A,,Clear,170,2013-02-24 08:55:00
3:15 AM,21.2,18.7,90,29.91,5.0,South,6.9,-,N/A,,Clear,170,2013-02-24 09:15:00
3:35 AM,21.4,18.9,90,29.91,5.0,SSE,5.8,-,N/A,,Clear,160,2013-02-24 09:35:00
3:55 AM,19.8,17.6,91,29.91,5.0,SSE,4.6,-,N/A,,Clear,160,2013-02-24 09:55:00
4:15 AM,20.7,18.9,93,29.91,5.0,SSE,4.6,-,N/A,,Clear,150,2013-02-24 10:15:00
4:35 AM,19.6,17.8,93,29.91,4.0,SSE,4.6,-,N/A,,Clear,150,2013-02-24 10:35:00
4:55 AM,19.0,17.4,93,29.92,3.0,SE,4.6,-,N/A,,Clear,140,2013-02-24 10:55:00
5:15 AM,17.6,16.0,93,29.93,3.0,SSE,4.6,-,N/A,,Clear,150,2013-02-24 11:15:00
5:35 AM,19.6,18.3,95,29.93,3.0,SE,5.8,-,N/A,,Clear,140,2013-02-24 11:35:00
5:55 AM,18.0,16.5,94,29.94,3.0,SSE,5.8,-,N/A,,Scattered Clouds,150,2013-02-24 11:55:00
6:15 AM,19.4,17.6,93,29.94,4.0,SE,4.6,-,N/A,,Overcast,140,2013-02-24 12:15:00
6:35 AM,19.9,18.3,93,29.94,5.0,SE,5.8,-,N/A,,Overcast,140,2013-02-24 12:35:00
6:55 AM,20.5,18.7,93,29.94,5.0,SE,6.9,-,N/A,,Overcast,130,2013-02-24 12:55:00
7:15 AM,21.2,19.4,93,29.94,5.0,SE,5.8,-,N/A,,Overcast,130,2013-02-24 13:15:00
7:35 AM,22.1,20.3,93,29.95,5.0,ESE,3.5,-,N/A,,Overcast,120,2013-02-24 13:35:00
7:55 AM,23.0,20.5,90,29.96,5.0,SE,5.8,-,N/A,,Overcast,140,2013-02-24 13:55:00
8:15 AM,23.9,21.2,89,29.97,5.0,SE,4.6,-,N/A,,Overcast,140,2013-02-24 14:15:00
8:35 AM,25.2,21.7,87,29.97,7.0,SSE,5.8,-,N/A,,Overcast,150,2013-02-24 14:35:00
8:55 AM,26.6,22.1,83,29.97,7.0,SE,5.8,-,N/A,,Overcast,140,2013-02-24 14:55:00
9:15 AM,27.9,22.6,81,29.97,7.0,SSE,4.6,-,N/A,,Overcast,150,2013-02-24 15:15:00
9:35 AM,29.1,22.8,77,29.98,10.0,SSE,5.8,-,N/A,,Overcast,150,2013-02-24 15:35:00
9:55 AM,30.2,23.4,76,29.99,10.0,SSE,4.6,-,N/A,,Overcast,150,2013-02-24 15:55:00
10:15 AM,30.9,23.9,75,30.00,10.0,South,4.6,-,N/A,,Overcast,170,2013-02-24 16:15:00
10:35 AM,32.0,23.9,72,30.00,10.0,South,3.5,-,N/A,,Overcast,170,2013-02-24 16:35:00
10:55 AM,32.5,24.4,72,30.01,10.0,SE,8.1,-,N/A,,Mostly Cloudy,140,2013-02-24 16:55:00
11:15 AM,33.1,24.1,70,30.00,10.0,SE,8.1,-,N/A,,Scattered Clouds,140,2013-02-24 17:15:00
11:35 AM,34.3,24.4,67,30.01,10.0,SSE,6.9,-,N/A,,Scattered Clouds,160,2013-02-24 17:35:00
11:55 AM,35.8,24.8,64,30.01,10.0,SSE,9.2,-,N/A,,Mostly Cloudy,160,2013-02-24 17:55:00
12:15 PM,35.8,25.2,65,30.01,10.0,South,6.9,-,N/A,,Scattered Clouds,180,2013-02-24 18:15:00
12:35 PM,35.8,25.5,66,30.00,10.0,South,6.9,-,N/A,,Clear,180,2013-02-24 18:35:00
12:55 PM,36.5,25.7,65,29.99,10.0,South,5.8,-,N/A,,Clear,180,2013-02-24 18:55:00
1:15 PM,37.4,25.5,62,29.98,10.0,South,5.8,-,N/A,,Clear,190,2013-02-24 19:15:00
1:35 PM,37.9,26.1,62,29.97,10.0,South,4.6,-,N/A,,Clear,170,2013-02-24 19:35:00
1:55 PM,40.1,26.8,59,29.97,10.0,ESE,3.5,-,N/A,,Clear,120,2013-02-24 19:55:00
2:15 PM,40.5,25.7,56,29.95,10.0,East,3.5,-,N/A,,Clear,100,2013-02-24 20:15:00
2:35 PM,40.5,26.1,57,29.95,10.0,SE,5.8,-,N/A,,Clear,140,2013-02-24 20:35:00
2:55 PM,40.1,24.3,53,29.95,10.0,SE,6.9,-,N/A,,Clear,140,2013-02-24 20:55:00
3:15 PM,40.8,26.8,57,29.94,10.0,ENE,3.5,-,N/A,,Clear,70,2013-02-24 21:15:00
3:35 PM,40.5,27.9,61,29.94,10.0,East,3.5,-,N/A,,Clear,80,2013-02-24 21:35:00
3:55 PM,40.6,28.8,63,29.95,10.0,NE,4.6,-,N/A,,Clear,40,2013-02-24 21:55:00
4:15 PM,40.1,28.4,63,29.95,10.0,ENE,4.6,-,N/A,,Clear,60,2013-02-24 22:15:00
4:35 PM,39.9,28.0,63,29.96,10.0,East,5.8,-,N/A,,Clear,100,2013-02-24 22:35:00
4:55 PM,37.8,26.6,64,29.96,10.0,East,6.9,-,N/A,,Scattered Clouds,90,2013-02-24 22:55:00
5:15 PM,37.2,27.1,67,29.97,10.0,East,5.8,-,N/A,,Mostly Cloudy,80,2013-02-24 23:15:00
5:35 PM,36.5,27.5,70,29.97,10.0,ENE,4.6,-,N/A,,Overcast,60,2013-02-24 23:35:00
5:55 PM,36.1,27.3,70,29.97,10.0,ENE,4.6,-,N/A,,Overcast,60,2013-02-24 23:55:00
6:15 PM,35.6,27.3,72,29.98,10.0,NE,4.6,-,N/A,,Overcast,40,2013-02-25 00:15:00
6:35 PM,35.8,27.0,70,29.99,10.0,NE,5.8,-,N/A,,Overcast,40,2013-02-25 00:35:00
6:55 PM,35.8,27.3,71,30.00,10.0,NE,5.8,-,N/A,,Overcast,40,2013-02-25 00:55:00
7:15 PM,35.6,27.3,72,30.01,10.0,NNE,4.6,-,N/A,,Overcast,20,2013-02-25 01:15:00
7:35 PM,35.8,27.3,71,30.01,10.0,NNE,5.8,-,N/A,,Overcast,30,2013-02-25 01:35:00
7:55 PM,35.2,27.9,74,30.01,10.0,NNE,5.8,-,N/A,,Overcast,30,2013-02-25 01:55:00
8:15 PM,35.8,27.9,73,30.02,10.0,NE,5.8,-,N/A,,Overcast,40,2013-02-25 02:15:00
8:35 PM,35.6,28.0,74,30.03,10.0,NNE,4.6,-,N/A,,Overcast,30,2013-02-25 02:35:00
8:55 PM,35.6,27.9,73,30.04,10.0,North,3.5,-,N/A,,Overcast,10,2013-02-25 02:55:00
9:15 PM,35.2,27.5,73,30.04,10.0,NNE,3.5,-,N/A,,Overcast,30,2013-02-25 03:15:00
9:35 PM,35.1,27.9,75,30.04,10.0,NNE,4.6,-,N/A,,Overcast,20,2013-02-25 03:35:00
9:55 PM,34.9,28.0,76,30.04,10.0,NNE,4.6,-,N/A,,Overcast,20,2013-02-25 03:55:00
10:15 PM,34.7,28.6,78,30.05,10.0,North,3.5,-,N/A,,Overcast,10,2013-02-25 04:15:00
10:35 PM,34.9,28.4,77,30.05,10.0,North,3.5,-,N/A,,Overcast,360,2013-02-25 04:35:00
10:55 PM,34.3,28.9,81,30.04,10.0,North,3.5,-,N/A,,Overcast,10,2013-02-25 04:55:00
11:15 PM,34.7,28.8,79,30.05,10.0,North,3.5,-,N/A,,Overcast,350,2013-02-25 05:15:00
11:35 PM,34.3,29.1,81,30.04,10.0,North,5.8,-,N/A,,Overcast,360,2013-02-25 05:35:00
11:55 PM,34.0,29.1,82,30.03,7.0,North,5.8,-,N/A,,Overcast,360,2013-02-25 05:55:00